Flag for Ukraine Weather past 2 weeks in Odesa, Ukraine

Now
63 °F

Clear.


Feels Like: 63 °F
Forecast: 53 / 70 °F
Wind: 8 mph from Northeast

Location: Odesa Airport

Current Time: Sep 18, 2014 at 9:35:35 PM

Latest Report: Sep 18, 2014 at 9:00 PM


Visibility: 10 mi

Pressure: 30.21 "Hg

Humidity: 37%

Dew point: 36 °F

Location of OdesaLocation

Historic Weather in Odesa — Graph

°F

Odesa temperature yesterday

Maximum temperature yesterday: 73 °F (at 2:30 PM)
Minimum temperature yesterday: 55 °F (at 6:30 AM)
Average temperature yesterday: 65 °F

Past Weeks' High & Low Weather Summary

 TemperatureHumidityPressure
High88 °F (Sep 4, 3:00 PM)94% (Sep 12, 2:30 AM)30.21 "Hg (Sep 12, 2:30 AM)
Low55 °F (Sep 16, 7:00 AM)18% (Sep 4, 3:00 PM)29.83 "Hg (Sep 6, 7:00 PM)
Average70 °F50%30.01 "Hg
* Reported Sep 3 8:00 PM — Sep 18 8:30 PM, Odesa, Weather by CustomWeather, © 2014

Note: Actual official high and low records may vary slightly from our data, if they occured in-between our weather recording intervals... More about our weather records

Advertising

Odesa weather history for previous 24 hours

 ConditionsComfort  
Time TempWeatherWind HumidityBarometerVisibility
8:30 PM
Sep 18
64 °FPassing clouds.3 mph34%30.21 "HgN/A
8:00 PM66 °FSunny.6 mph32%30.18 "Hg10 mi
7:30 PM66 °FSunny.8 mph32%30.18 "Hg10 mi
7:00 PM66 °FSunny.6 mph32%30.18 "Hg10 mi
6:30 PM68 °FPassing clouds.6 mph28%30.18 "HgN/A
6:00 PM70 °FPassing clouds.6 mph29%30.15 "HgN/A
5:30 PM70 °FPassing clouds.8 mph33%30.15 "HgN/A
5:00 PM70 °FPassing clouds.8 mph33%30.15 "HgN/A
4:30 PM70 °FPassing clouds.8 mph31%30.15 "HgN/A
4:00 PM70 °FPassing clouds.8 mph31%30.15 "HgN/A
3:30 PM70 °FPassing clouds.10 mph31%30.15 "HgN/A
3:00 PM70 °FPassing clouds.13 mph31%30.15 "HgN/A
2:30 PM70 °FPassing clouds.10 mph29%30.15 "HgN/A
2:00 PM70 °FPassing clouds.10 mph29%30.18 "HgN/A
1:30 PM70 °FPassing clouds.17 mph29%30.18 "HgN/A
1:00 PM68 °FPassing clouds.15 mph33%30.18 "HgN/A
12:30 PM68 °FSunny.15 mph35%30.18 "Hg10 mi
12:00 PM68 °FPassing clouds.15 mph40%30.18 "HgN/A
11:30 AM66 °FSunny.15 mph46%30.18 "Hg10 mi
11:00 AM66 °FSunny.15 mph46%30.18 "Hg10 mi
10:30 AM66 °FPassing clouds.15 mph49%30.18 "HgN/A
10:00 AM63 °FPassing clouds.15 mph52%30.18 "HgN/A
9:30 AM61 °FPassing clouds.15 mph55%30.15 "HgN/A
9:00 AM61 °FSunny.15 mph55%30.15 "Hg10 mi
8:30 AM59 °FSunny.10 mph59%30.15 "Hg10 mi
8:00 AM57 °FSunny.10 mph59%30.15 "Hg10 mi
7:30 AM57 °FClear.10 mph63%30.15 "Hg10 mi
7:00 AM57 °FClear.10 mph63%30.15 "Hg10 mi
6:30 AM59 °FClear.13 mph59%30.15 "Hg10 mi
6:00 AM57 °FClear.13 mph67%30.12 "Hg10 mi
5:30 AM59 °FClear.8 mph63%30.12 "Hg10 mi
5:00 AM59 °FClear.10 mph63%30.12 "Hg10 mi
4:30 AM61 °FClear.13 mph59%30.12 "Hg10 mi
4:00 AM61 °FPassing clouds.15 mph59%30.12 "HgN/A
3:30 AM61 °FClear.10 mph55%30.12 "Hg10 mi
3:00 AM61 °FClear.10 mph55%30.12 "Hg10 mi
2:30 AM61 °FClear.8 mph55%30.12 "Hg10 mi
2:00 AM63 °FClear.10 mph56%30.12 "Hg10 mi
1:30 AM64 °FClear.10 mph52%30.12 "Hg10 mi
1:00 AM64 °FClear.13 mph49%30.12 "Hg10 mi
12:30 AM64 °FPassing clouds.15 mph49%30.12 "HgN/A
12:00 AM66 °FClear.10 mph49%30.12 "Hg10 mi
11:30 PM
Sep 17
68 °FPassing clouds.3 mph46%30.12 "HgN/A
11:00 PM68 °FClear.3 mph46%30.12 "Hg10 mi
10:30 PM68 °FPassing clouds.3 mph46%30.12 "HgN/A
10:00 PM68 °FPassing clouds.3 mph43%30.12 "HgN/A
9:30 PM68 °FPassing clouds.6 mph43%30.12 "HgN/A
9:00 PM68 °FPassing clouds.8 mph46%30.12 "HgN/A
Weather by CustomWeather, © 2014

See weather overviewHow to use our weather pages